Pian Rosa, Italy

10:04 PM CEST on May 24, 2017 (GMT +0200)
Pian Rosa

Weather History for LIMH - May, 2013

Change the Weather History Date:

Thursday, May 23, 2013

  Actual Average Record
Temperature  
Mean Temperature 19 °F -  
Max Temperature 25 °F 33 °F 44 °F (2007)
Min Temperature 10 °F 23 °F 10 °F (2013)
Degree Days  
Heating Degree Days 46    
Moisture  
Dew Point 14 °F    
Average Humidity 85    
Maximum Humidity 93    
Minimum Humidity 71    
Precipitation  
Precipitation 0.00 in - - ()
Sea Level Pressure  
Sea Level Pressure 29.71 in    
Wind  
Wind Speed 12 mph ()    
Max Wind Speed 21 mph    
Max Gust Speed -    
Visibility 4.8 miles    
Events Fog    
Averages and records for this station are not official NWS values.
T = Trace of Precipitation, MM = Missing Value Source: Averaged Metar Reports

Daily Weather History Graph

Daily Weather History Graph

Search for Another Location

Airport or City:

Trip Planner

Search our weather history database for the weather conditions in past years. The results will help you decide how hot, cold, wet, or windy it might be!

Date:

Astronomy

May. 23, 2013 Rise Set
Actual Time 5:48 AM CEST 9:03 PM CEST
Civil Twilight 5:12 AM CEST 9:39 PM CEST
Nautical Twilight 4:25 AM CEST 10:27 PM CEST
Astronomical Twilight 3:27 AM CEST 11:26 PM CEST
Moon 7:12 PM CEST (5/23) 4:29 AM CEST (5/23)
Length of Visible Light 16h 27m
Length of Day
15h 14m
Waxing Gibbous, 95% of the Moon is Illuminated
May 23
Waxing Gibbous
May 25
Full
May 31
Last Quarter
Jun 8
New
Jun 16
First Quarter

Hourly Weather History & Observations

Time (CEST) Temp. Windchill Dew Point Humidity Pressure Visibility Wind Dir Wind Speed Gust Speed Precip Events Conditions
12:55 AM 15.8 °F -1.5 °F 14.0 °F 93% 29.80 in 0.4 mi ENE 20.7 mph - N/A Fog Light Freezing Fog
1:55 AM 15.8 °F -1.1 °F 12.2 °F 86% 29.77 in 0.5 mi ENE 19.6 mph - N/A Fog Light Freezing Fog
2:00 AM 15 °F - 13 °F 85%  in 0 mi ENE 19.6 mph - - Fog Heavy Fog
2:55 AM 15.8 °F 0.3 °F 12.2 °F 86% 29.77 in - ENE 16.1 mph - N/A   Clear
3:55 AM 14.0 °F -3.4 °F 12.2 °F 93% 29.74 in - NE 19.6 mph - N/A   Clear
4:55 AM 14.0 °F -2.0 °F 12.2 °F 93% 29.74 in - ENE 16.1 mph - N/A   Clear
5:00 AM 15 °F - 12 °F 81%  in 12 mi ENE 16.1 mph - -   Partly Cloudy
5:55 AM 14.0 °F -0.8 °F 12.2 °F 93% 29.74 in - ENE 13.8 mph - N/A   Clear
6:55 AM 14.0 °F -2.5 °F 10.4 °F 86% 29.74 in - ENE 17.3 mph - N/A   Clear
7:55 AM 14.0 °F -2.5 °F 12.2 °F 93% 29.74 in - East 17.3 mph - N/A   Clear
8:00 AM 15 °F - 11 °F 79%  in 31 mi East 17.3 mph - -   Partly Cloudy
8:55 AM 14.0 °F -2.0 °F 12.2 °F 93% 29.74 in - NE 16.1 mph - N/A   Clear
9:55 AM 15.8 °F 5.1 °F 12.2 °F 86% 29.74 in - ENE 8.1 mph - N/A   Clear
10:55 AM 17.6 °F 6.4 °F 14.0 °F 86% 29.74 in - NE 9.2 mph - N/A   Clear
11:00 AM 18 °F - 15 °F 80%  in 31 mi NE 9.2 mph - -  
11:55 AM 17.6 °F 7.3 °F 14.0 °F 86% 29.74 in - WSW 8.1 mph - N/A   Clear
12:55 PM 23.0 °F 17.0 °F 19.4 °F 86% 29.71 in - West 4.6 mph - N/A   Clear
1:55 PM 23.0 °F 17.0 °F 21.2 °F 93% 29.71 in 6.2 mi SW 4.6 mph - N/A   Partly Cloudy
2:00 PM 24 °F - 20 °F 81%  in 31 mi SW 4.6 mph - -   Scattered Clouds
2:55 PM 23.0 °F - 19.4 °F 86% 29.71 in 6.2 mi SSE 2.3 mph - N/A   Scattered Clouds
3:55 PM 24.8 °F 20.5 °F 21.2 °F 86% 29.71 in 6.2 mi WSW 3.5 mph - N/A   Scattered Clouds
4:55 PM 23.0 °F 15.8 °F 17.6 °F 80% 29.68 in 6.2 mi SSW 5.8 mph - N/A   Scattered Clouds
5:00 PM 23 °F - 17 °F 71%  in 19 mi SSW 5.8 mph - -   Partly Cloudy
5:55 PM 21.2 °F 13.6 °F 15.8 °F 80% 29.68 in 6.2 mi South 5.8 mph - N/A   Scattered Clouds
6:55 PM 21.2 °F 16.4 °F 14.0 °F 74% 29.68 in 6.2 mi SW 3.5 mph - N/A   Mostly Cloudy
7:55 PM 21.2 °F 11.7 °F 15.8 °F 80% 29.65 in 6.2 mi WSW 8.1 mph - N/A   Mostly Cloudy
8:00 PM 20 °F - 15 °F 73%  in 6 mi WSW 8.1 mph - -   Mostly Cloudy
8:55 PM 15.8 °F 4.2 °F 10.4 °F 79% 29.62 in 2.5 mi ENE 9.2 mph - N/A   Mist
9:55 PM 14.0 °F 5.1 °F 10.4 °F 86% 29.62 in 1.9 mi ENE 5.8 mph - N/A   Mostly Cloudy
10:55 PM 14.0 °F 2.9 °F 10.4 °F 86% 29.62 in 0.3 mi NE 8.1 mph - N/A Fog Light Freezing Fog
11:00 PM 13 °F - 10 °F 80%  in 0 mi NE 8.1 mph - - Fog Heavy Fog
11:55 PM 10.4 °F -3.3 °F 6.8 °F 85% 29.62 in 0.5 mi ENE 10.4 mph - N/A Fog Light Freezing Fog